Regional Weather Roundup
Issued by NWS

Home | Current Version | Previous Version | Text Only | Print | Product List | Glossary On
Versions: 1 2 3 4 5 6 7 8 9 10 11 12 13 14 15 16 17 18 19 20 21 22 23 24 25 26 27 28 29 30 31 32 33 34 35 36 37 38 39 40 41 42 43 44 45 46 47 48 49 50
000
ASUS45 KBOU 282007
RWRCO

WEATHER ROUNDUP FOR COLORADO
NATIONAL WEATHER SERVICE DENVER/BOULDER CO
100 PM MST WED JAN 28 2015

NOTE: "FAIR" INDICATES FEW OR NO CLOUDS BELOW 12000 FEET WITH NO
SIGNIFICANT WEATHER AND/OR OBSTRUCTIONS TO VISIBILITY.

COZ001>005-013-030-031-282100-
...NORTHWEST COLORADO...

CITY           SKY/WX    TMP DP  RH WIND       PRES   REMARKS
CRAIG          MOSUNNY   41  31  67 W10       30.24F
HAYDEN         CLOUDY    41  28  60 NW9       30.25S
MEEKER         SUNNY     44  29  55 SE6       30.23F
MOUNT WERNER   NOT AVBL
STEAMBOAT SPGS NOT AVBL
WALDEN         CLOUDY    37  27  65 W14       30.20S
$$

COZ006>008-011-282100-
...WEST CENTRAL VALLEYS...

CITY           SKY/WX    TMP DP  RH WIND       PRES   REMARKS
GRAND JUNCTION SUNNY     50  34  54 VRB3      30.25F
MONTROSE       MOSUNNY   52  29  41 NW6       30.26F
EAGLE          MOSUNNY   46  25  42 SW21G28   30.24F
RIFLE          SUNNY     48  30  49 VRB3      30.24F
DELTA          MOSUNNY   53  32  44 W3        30.25F
NUCLA          MOSUNNY   52  30  43 NW8       30.29F
$$

COZ017>023-064>068-282100-
...SOUTHWEST COLORADO...

CITY           SKY/WX    TMP DP  RH WIND       PRES   REMARKS
DURANGO        PTSUNNY   48  30  49 W13       30.24F
CORTEZ         SUNNY     54  27  35 NW10      30.25F
PAGOSA SPRINGS PTSUNNY   47  25  42 S3        30.26F
TELLURIDE      SUNNY     42  20  41 W3        30.31F
WOLF CREEK PAS NOT AVBL
$$

COZ009-010-012-014-032>034-037-058>063-282100-
...CENTRAL COLORADO...

CITY           SKY/WX    TMP DP  RH WIND       PRES   REMARKS
ASPEN          MOSUNNY   40  24  53 NW9       30.24F
BUENA VISTA    CLOUDY    49  15  26 W16G24    30.19S
COPPER MTN     CLOUDY    27  19  74 W22G33    30.27S HAZE    WCI  12
BERTHOUD PASS  LGT SNOW  18  12  79 NW25G37   30.25R WCI  -1
COTTONWOOD PAS MOSUNNY   41  12  30 W14G36    30.22S
GUNNISON       SUNNY     28  16  59 E6        30.30F WCI  22
KREMMLING      CLOUDY    41  23  48 CALM      30.24S
LEADVILLE      MOSUNNY   33  15  47 NW13G26   30.23F WCI  24
MONARCH PASS   CLOUDY    23  21  93 MISG      30.38F
SALIDA         MOSUNNY   49  21  32 W23G32    30.25F
SUNLIGHT       PTSUNNY   32  27  80 CALM      30.32
WILKERSON PASS SUNNY     32  12  43 W13G28    30.25F WCI  22
$$

COZ069>075-282100-
...SAN LUIS VALLEY/SANGRE DE CRISTO MOUNTAINS...

CITY           SKY/WX    TMP DP  RH WIND       PRES   REMARKS
ALAMOSA        MOSUNNY   46  24  42 NE12      30.22F
LA VETA PASS   NOT AVBL
SAGUACHE       MOSUNNY   43  25  49 NW24G30   30.22F
$$

COZ035-036-038>040-282100-
...NORTHERN COLORADO FRONT RANGE...

CITY           SKY/WX    TMP DP  RH WIND       PRES   REMARKS
DENVER INTL AP PTSUNNY   58  19  22 W21G29    30.03F
DMNS CITY PARK   N/A     59  16  18 W14G26    30.04F
AURORA         MOSUNNY   58  19  21 W21G33    30.05F
FRONT RANGE AP PTSUNNY   59  23  25 W25G33    30.05F
ERIE MUNI ARPT MOSUNNY   61  17  18 W10G18    30.03R
BOULDER MUN AP MOSUNNY   59  19  21 E6G16     30.03R
CENTENNIAL     MOSUNNY   58  17  20 NW20G31   30.05F
BROOMFIELD     MOSUNNY   57  19  23 W36G51    30.01F
FORT COLLINS   PTSUNNY   59  23  25 NW21G32   30.06R
LONGMONT       PTSUNNY   61  20  20 W24G37    30.04F
$$

COZ041-046-047-076>085-087-088-282100-
...PIKES PEAK/PALMER DIVIDE AND SOUTHERN FOOTHILLS...

CITY           SKY/WX    TMP DP  RH WIND       PRES   REMARKS
COLO. SPRINGS  MOSUNNY   58  13  17 W30G40    30.07F
A. F. ACADEMY  SUNNY     55  12  18 NW30      30.06F
ELLICOTT       SUNNY    N/A N/A N/A NW22G29   30.05F
FALCON         SUNNY     55  13  18 W21G30    30.09F
FORT CARSON    SUNNY     60  17  18 N5        30.05F
LIMON          SUNNY     59  19  21 NW30G37   30.02F
MONUMENT HILL  SUNNY     52  18  25 NW16G28   30.08F
TRINIDAD       MOSUNNY   62  26  25 N18       30.05F
$$

COZ042>045-048>051-090-091-282100-
...NORTHEAST COLORADO...

CITY           SKY/WX    TMP DP  RH WIND       PRES   REMARKS
GREELEY ARPT   PTSUNNY   61  25  25 NW20G31   30.02S
AKRON          MOSUNNY   59  28  30 NW31G43   29.99F
BURLINGTON     SUNNY     63  28  26 NW29G35   29.97F
WRAY           SUNNY     65  29  26 NW38G46   29.94S
STERLING       MOSUNNY   63  34  34 NW30G43   29.97S
HOLYOKE        SUNNY     63  32  31 NW29G38   29.93S
FORT MORGAN    MOSUNNY   60  27  28 NW25G39   30.02F
$$

COZ086-089-092>099-282100-
...SOUTHEAST COLORADO...

CITY           SKY/WX    TMP DP  RH WIND       PRES   REMARKS
PUEBLO         SUNNY     65  20  17 W21G33    30.02F
LA JUNTA       SUNNY     69  23  17 NW16      30.00F
LAMAR          SUNNY     67  27  22 W12       29.97F
SPRINGFIELD      N/A     65  23  20 NW17      30.00F
$$


USA.gov is the U.S. government's official web portal to all federal, state and local government web resources and services.